CW7779 Weather Reports


Display with metric or nautical units.
time (UTC)temp
F
wind
direction
speed
MPH
gust
MPH
rain 1hr
in
rain 24hr
in
rain mn
in
humidity
%
barometer
mb
20260504004554 61 227 3.0 8.0 0.00 0.00 0.00 63 1017.5
20260504003101 61 205 1.0 7.0 0.00 0.00 0.00 63 1017.4
20260504001606 62 199 3.0 6.0 0.00 0.00 0.00 62 1017.2
20260504000110 62 221 3.0 10.0 0.00 0.01 0.00 60 1017.1
20260503234552 63 211 3.0 9.0 0.00 0.01 0.00 59 1016.9
20260503233051 64 242 2.0 10.0 0.00 0.01 0.00 58 1016.8
20260503231551 67 217 4.0 9.0 0.00 0.01 0.00 50 1016.8
20260503230050 69 266 1.0 6.0 0.00 0.06 0.00 38 1016.7
20260503224549 69 336 3.0 6.0 0.00 0.06 0.00 40 1016.7
20260503223050 69 325 3.0 9.0 0.00 0.06 0.00 41 1016.7
20260503221553 70 255 1.0 6.0 0.00 0.06 0.00 40 1016.7
20260503220047 69 317 5.0 9.0 0.00 0.10 0.00 41 1016.6
20260503214545 69 305 4.0 10.0 0.00 0.10 0.00 37 1016.6
20260503213046 69 267 2.0 11.0 0.00 0.10 0.00 37 1016.3
20260503211545 69 332 0.0 13.0 0.00 0.10 0.00 34 1016.2
20260503210044 69 250 2.0 13.0 0.00 0.11 0.00 37 1016.5
20260503204544 69 294 4.0 9.0 0.00 0.11 0.00 36 1016.7
20260503203043 69 344 5.0 11.0 0.00 0.11 0.00 41 1017.0
20260503201539 68 328 4.0 14.0 0.00 0.11 0.00 39 1016.8
20260503200039 68 319 8.0 11.0 0.00 0.15 0.00 40 1016.8
20260503194538 68 341 7.0 14.0 0.00 0.15 0.00 41 1017.0
20260503193042 68 340 4.0 12.0 0.00 0.15 0.00 43 1017.2
20260503191535 67 331 2.0 10.0 0.00 0.15 0.00 47 1017.5
20260503190034 67 348 5.0 14.0 0.00 0.20 0.00 43 1017.7
20260503184534 66 341 4.0 14.0 0.00 0.20 0.00 41 1017.7
20260503183034 66 358 3.0 11.0 0.00 0.20 0.00 43 1017.9
20260503181529 65 28 1.0 8.0 0.00 0.20 0.00 43 1018.2
20260503180131 65 344 3.0 10.0 0.00 0.20 0.00 44 1018.2
20260503174530 65 315 6.0 16.0 0.00 0.20 0.00 44 1018.3
20260503173025 64 319 10.0 17.0 0.00 0.20 0.00 44 1018.3
20260503171524 64 21 1.0 10.0 0.00 0.20 0.00 43 1018.6
20260503081514 50 316 7.0 11.0 0.00 0.35 0.00 88 1015.1
20260503071511 51 318 6.0 10.0 0.00 0.35 0.00 87 1014.6
20260503060122 51 325 6.0 10.0 0.00 0.35 0.00 87 1014.1
20260503054601 51 349 6.0 10.0 0.00 0.35 0.00 86 1014.1
20260503053056 52 317 5.0 10.0 0.00 0.35 0.00 86 1014.0
20260503051554 53 317 4.0 8.0 0.00 0.35 0.00 86 1013.5
20260503050053 53 334 2.0 6.0 0.00 0.35 0.00 86 1013.6
20260503044551 53 328 4.0 8.0 0.00 0.35 0.00 86 1013.6
20260503043050 53 318 4.0 7.0 0.00 0.35 0.00 86 1013.5
20260503041551 53 315 4.0 9.0 0.00 0.35 0.00 86 1013.3
20260503040049 53 342 5.0 8.0 0.00 0.35 0.35 85 1013.0
20260503034550 53 334 4.0 7.0 0.00 0.35 0.35 84 1012.8
20260503033049 53 317 1.0 6.0 0.00 0.35 0.35 83 1013.0
20260503031543 53 353 0.0 6.0 0.00 0.35 0.35 83 1013.1
20260503030041 53 348 1.0 5.0 0.00 0.35 0.35 81 1013.1
20260503024540 53 7 0.0 7.0 0.00 0.35 0.35 82 1013.1
20260503023039 53 22 0.0 7.0 0.00 0.35 0.35 83 1013.0
20260503021538 54 15 1.0 7.0 0.00 0.35 0.35 85 1013.0
20260503020036 54 17 0.0 4.0 0.00 0.35 0.35 86 1012.9
20260503014535 54 38 1.0 7.0 0.00 0.35 0.35 87 1012.5
20260503013044 54 39 1.0 7.0 0.00 0.35 0.35 88 1012.4
20260503011538 55 47 0.0 4.0 0.00 0.35 0.35 89 1012.1
20260503010038 54 344 0.0 8.0 0.00 0.35 0.35 88 1011.9